Regional Weather Roundup
Issued by NWS

Home | Current Version | Previous Version | Graphics & Text | Print | Product List | Glossary On
Versions: 1 2 3 4 5 6 7 8 9 10 11 12 13 14 15 16 17 18 19 20 21 22 23 24 25 26 27 28 29 30 31 32 33 34 35 36 37 38 39 40 41 42 43 44 45 46 47 48 49 50
000
ASUS43 KLMK 262302
RWRKY
KENTUCKY REGIONAL WEATHER ROUNDUP
NATIONAL WEATHER SERVICE LOUISVILLE KY
600 PM EST WED NOV 26 2014

NOTE "FAIR" INDICATES FEW OR NO CLOUDS BELOW 12,000 FEET
WITH NO SIGNIFICANT WEATHER AND/OR OBSTRUCTIONS TO VISIBILITY.

KYZ001>023-026-027-061>063-070>075-270000-
WESTERN AND SOUTH CENTRAL KENTUCKY

CITY           SKY/WX    TMP DP  RH WIND       PRES   REMARKS
PADUCAH        LGT RAIN  39  35  86 SW6       30.01R FOG     WCI  35
HENDERSON      CLOUDY    39  28  65 N7        30.02R WCI  34
OWENSBORO      CLOUDY    42  26  53 VRB6      30.01F
HOPKINSVILLE   DRIZZLE   43  35  73 SW15      30.01R
BOWLING GREEN  CLOUDY    45  23  42 SE6       29.99F
GLASGOW        NOT AVBL
$$

KYZ024-025-028>034-038-045-046-053-270000-
NORTH CENTRAL KENTUCKY

CITY           SKY/WX    TMP DP  RH WIND       PRES   REMARKS
LOUISVILLE/SDF CLOUDY    42  27  55 E3        30.02S
LOUISVILLE/LOU CLOUDY    42  26  53 CALM      30.03S
FORT KNOX      CLOUDY    40  25  55 SE2       30.00S
$$

KYZ035>037-039>044-047>052-055>060-089>105-270000-
NORTHEAST KENTUCKY

CITY           SKY/WX    TMP DP  RH WIND       PRES   REMARKS
LEXINGTON      MOCLDY    39  28  64 S3        30.01F
COVINGTON      CLOUDY    36  25  64 NE5       30.02F WCI  32
FRANKFORT      CLOUDY    37  29  72 CALM      30.01F
$$

KYZ054-064>069-076>088-106>120-270000-
SOUTHEAST KENTUCKY

CITY           SKY/WX    TMP DP  RH WIND       PRES   REMARKS
JACKSON        CLEAR     42  26  53 NW6       29.99F
LONDON         PTCLDY    43  23  45 W5        30.01S
SOMERSET       NOT AVBL
MIDDLESBORO    NOT AVBL
MONTICELLO     CLOUDY    42  28  58 CALM      30.05R
$$




USA.gov is the U.S. government's official web portal to all federal, state and local government web resources and services.